GW1675 Weather Reports


time (UTC)temp
F
wind
direction
speed
knots
gust
knots
rain 1hr
in
rain 24hr
in
rain mn
in
humidity
%
barometer
mb
20260504044542 56 197 4.3 7.8 0.00 0.00 0.00 76 1017.2
20260504043054 56 198 4.3 7.8 0.00 0.00 0.00 76 1017.2
20260504041551 56 198 4.3 7.0 0.00 0.00 0.00 76 1017.1
20260504040057 57 198 5.2 11.3 0.00 0.00 0.00 76 1017.1
20260504034552 57 198 4.3 8.7 0.00 0.00 0.00 76 1017.1
20260504033057 57 198 3.5 9.6 0.00 0.00 0.00 76 1017.0
20260504031552 57 199 3.5 8.7 0.00 0.00 0.00 76 1017.1
20260504030051 57 198 2.6 8.7 0.00 0.00 0.00 76 1017.0
20260504024550 58 199 3.5 6.1 0.00 0.00 0.00 76 1016.9
20260504023045 58 198 2.6 7.8 0.00 0.00 0.00 76 1016.7
20260504021552 58 199 1.7 6.1 0.00 0.00 0.00 76 1016.7
20260504020103 58 199 2.6 4.3 0.00 0.00 0.00 76 1016.9
20260504014550 58 198 1.7 5.2 0.00 0.00 0.00 76 1016.8
20260504013053 58 198 1.7 4.3 0.00 0.00 0.00 76 1016.9
20260504011548 57 198 0.9 2.6 0.00 0.00 0.00 75 1016.8
20260504010044 57 0 0.0 2.6 0.00 0.00 0.00 75 1017.1
20260504004551 57 198 0.9 2.6 0.00 0.00 0.00 75 1017.2
20260504003047 57 0 0.0 1.7 0.00 0.00 0.00 75 1017.3
20260504001553 57 198 0.9 4.3 0.00 0.00 0.00 74 1017.4
20260504000049 57 198 1.7 3.5 0.00 0.00 0.00 74 1017.5
20260503234549 58 198 0.0 2.6 0.00 0.00 0.00 74 1017.5
20260503233044 58 199 1.7 4.3 0.00 0.00 0.00 74 1017.5
20260503231546 59 198 1.7 3.5 0.00 0.00 0.00 74 1017.5
20260503230059 59 199 1.7 3.5 0.00 0.00 0.00 74 1017.6
20260503224544 60 1.7 2.6 0.00 0.00 0.00 74 1017.6
20260503223041 59 198 0.9 3.5 0.00 0.00 0.00 74 1017.7
20260503221542 59 198 0.9 1.7 0.00 0.00 0.00 74 1017.5
20260503220048 60 198 0.9 2.6 0.00 0.00 0.00 74 1017.5
20260503214547 61 199 1.7 2.6 0.00 0.00 0.00 74 1017.5
20260503213044 61 198 1.7 4.3 0.00 0.00 0.00 74 1017.4
20260503211603 61 198 1.7 2.6 0.00 0.00 0.00 74 1017.3
20260503210043 61 198 1.7 3.5 0.00 0.00 0.00 74 1017.0
20260503204549 61 198 2.6 4.3 0.00 0.00 0.00 74 1016.8
20260503203049 61 198 2.6 4.3 0.00 0.00 0.00 73 1016.6
20260503201552 62 198 3.5 7.0 0.00 0.00 0.00 73 1016.3
20260503200056 62 198 4.3 7.8 0.00 0.00 0.00 73 1016.0
20260503194545 63 198 5.2 8.7 0.00 0.00 0.00 73 1015.8
20260503193052 63 199 4.3 10.4 0.00 0.00 0.00 72 1015.8
20260503191545 64 199 6.1 9.6 0.00 0.00 0.00 72 1015.7
20260503190050 65 199 7.0 11.3 0.00 0.00 0.00 72 1015.5
20260503184558 65 199 5.2 13.0 0.00 0.00 0.00 72 1015.3
20260503183050 66 199 7.0 13.9 0.00 0.00 0.00 72 1015.3
20260503181607 67 201 7.0 13.0 0.00 0.00 0.00 72 1015.3
20260503174551 67 202 7.8 17.4 0.00 0.00 0.00 72 1015.2
20260503173059 68 195 8.7 15.6 0.00 0.00 0.00 72 1015.3
20260503171548 68 191 7.8 14.8 0.00 0.00 0.00 72 1015.2
20260503081547 64 178 3.5 6.1 0.00 0.00 0.00 80 1017.8
20260503071557 61 178 1.7 4.3 0.00 0.00 0.00 81 1017.7
20260503054542 53 0 0.0 0.9 0.00 0.00 0.00 79 1017.4
20260503053042 53 0 0.0 0.0 0.00 0.00 0.00 79 1017.4